This is the latest recevied weather packets stored in our database for station/object CQ0XSM-11. If no packets are shown the sender has not sent any weather packets the latest 10 day(s).
| Time | Temp. | Humidity | Pressure | Rain* | Wind** | Luminosity | Snow |
|---|---|---|---|---|---|---|---|
| 1778014569 | 9.44° C | 99% | 997.2 hPa | 0 mm | - | - | - |
| 1778013947 | 10° C | 95% | 997.1 hPa | 0 mm | - | - | - |
| 1778013058 | 10° C | 90% | 997 hPa | 0 mm | - | - | - |
| 1778012126 | 10.56° C | 85% | 997 hPa | 0 mm | - | - | - |
| 1778011847 | 10.56° C | 83% | 996.9 hPa | 0 mm | - | - | - |
| 1778011537 | 10.56° C | 81% | 996.9 hPa | 0 mm | - | - | - |
| 1778011233 | 10.56° C | 78% | 996.8 hPa | 0 mm | - | - | - |
| 1778010922 | 10.56° C | 77% | 996.8 hPa | 0 mm | - | - | - |
| 1778010621 | 11.11° C | 75% | 996.7 hPa | 0 mm | - | - | - |
| 1778010314 | 11.11° C | 74% | 996.6 hPa | 0 mm | - | - | - |
| 1778010040 | 11.11° C | 73% | 996.6 hPa | 0 mm | - | - | - |
| 1778009702 | 11.11° C | 73% | 996.4 hPa | 0 mm | - | - | - |
| 1778009411 | 11.67° C | 74% | 996.3 hPa | 0 mm | - | - | - |
| 1778008792 | 11.67° C | 70% | 996.1 hPa | 0 mm | - | - | - |
| 1778008474 | 12.22° C | 69% | 996.1 hPa | 0 mm | - | - | - |
| 1778008215 | 12.22° C | 68% | 996 hPa | 0 mm | - | - | - |
| 1778007874 | 12.22° C | 69% | 996.1 hPa | 0 mm | - | - | - |
| 1778007574 | 12.22° C | 69% | 996.1 hPa | 0 mm | - | - | - |
| 1778007287 | 12.22° C | 68% | 996.1 hPa | 0 mm | - | - | - |
| 1778006994 | 12.22° C | 67% | 996.1 hPa | 0 mm | - | - | - |
| 1778006655 | 12.78° C | 65% | 996.1 hPa | 0 mm | - | - | - |
| 1778006390 | 12.78° C | 63% | 995.8 hPa | 0 mm | - | - | - |
| 1778006054 | 13.33° C | 61% | 995.7 hPa | 0 mm | - | - | - |
| 1778005760 | 13.33° C | 60% | 995.8 hPa | 0 mm | - | - | - |
| 1778005157 | 13.33° C | 60% | 995.7 hPa | 0 mm | - | - | - |
* Rain since midnight (hover to see other rain measurements)
** Current wind speed in m/s (hover to see current wind gust speed)